Notices

What's New in latest Release from April 7th, 2021:

- Updated Glossary, including Speed of Maximum Gust, and Total Hourly Precipitation

- Updated national and regional climate services offices contacts and prices information

- Addition of station inventory lists for 1981-2010, 1971-2000, and 1961-1990 Normals.

If you haven't already, please take our survey and provide feedback about our website: https://eccc.sondage-survey.ca/f/LanguageSelection.aspx?s=442ca660-fcf1-47c0-95a9-59707d6fd709

Hourly Data Report for July 29, 2018

OTTAWA INTL A
ONTARIO
Current Station Operator: NAVCAN

45°19'00.000" N
75°40'00.000" W
114.90 m
6106001
71628
YOW

Download Data

Hourly Data (July 2018)
Hourly Data Report for July 29, 2018
TIME
LST
Temp Definition
°C
Dew Point Definition
°C
Rel Hum Definition
%
Precip. Amount Definition
mm

Wind Dir Definition
10's deg

Wind Spd Definition
km/h
Visibility Definition
km
Stn Press Definition
kPa
Hmdx Definition


Wind Chill Definition


Weather Definition


00:00 17.4 15.6 89   27 10 24.1 100.22     LegendNANA
01:00 16.9 15.5 91   26 13 24.1 100.24     Mainly Clear
02:00 16.6 15.4 93   26 10 24.1 100.29     LegendNANA
03:00 16.1 14.9 92   28 14 24.1 100.33     LegendNANA
04:00 15.1 14.5 96   28 10 24.1 100.34     Clear
05:00 14.1 13.7 97   25 10 24.1 100.38     LegendNANA
06:00 15.1 14.3 95   26 13 24.1 100.46     LegendNANA
07:00 17.1 15.0 87   26 12 24.1 100.49     Mainly Clear
08:00 18.9 16.0 83   27 9 24.1 100.46     LegendNANA
09:00 20.5 15.2 71   25 13 24.1 100.46 25   LegendNANA
10:00 22.4 14.4 60   27 5 24.1 100.44 26   Clear
11:00 24.2 11.8 45   24 14 24.1 100.44 26   LegendNANA
12:00 24.7 13.4 49   23 11 24.1 100.40 28   LegendNANA
13:00 26.4 14.0 46   25 13 24.1 100.37 30   Mainly Clear
14:00 25.4 13.8 48   25 13 24.1 100.34 29   LegendNANA
15:00 26.6 12.2 40   20 18 24.1 100.30 29   LegendNANA
16:00 26.8 12.5 41   20 16 24.1 100.27 29   Mostly Cloudy
17:00 25.4 12.6 44   22 18 24.1 100.30 28   LegendNANA
18:00 18.0 16.2 89   31 24 16.1 100.41     Thunderstorms,Rain Showers
19:00 18.7 17.4 92   17 5 24.1 100.37     Mostly Cloudy
20:00 18.2 17.4 95   36 2 24.1 100.41     LegendNANA
21:00 17.2 16.5 96   20 11 24.1 100.44     LegendNANA
22:00 17.1 15.9 93   21 8 24.1 100.45     Mainly Clear
23:00 17.1 15.8 91   24 5 24.1 100.48     Rain Showers

Notes on Data Quality.

Legend

  • E = Estimated
  • M = Missing
  • NA = Not Available*
  • [empty] = Indicates an unobserved value
Date modified: